TimeCDT,TemperatureF,Dew PointF,Humidity,Sea Level PressureIn,VisibilityMPH,Wind Direction,Wind SpeedMPH,Gust SpeedMPH,PrecipitationIn,Events,Conditions,WindDirDegrees,DateUTC
12:53 AM,52.0,44.1,74,29.92,10.0,South,8.1,-,N/A,,Clear,170,2013-04-28 05:53:00
1:53 AM,51.1,44.1,77,29.92,10.0,South,10.4,-,N/A,,Clear,180,2013-04-28 06:53:00
2:53 AM,48.9,44.1,83,29.91,10.0,South,10.4,-,N/A,,Clear,180,2013-04-28 07:53:00
3:53 AM,46.9,43.0,86,29.89,10.0,SSE,8.1,-,N/A,,Clear,160,2013-04-28 08:53:00
4:53 AM,46.9,43.0,86,29.88,9.0,SSE,10.4,-,N/A,,Clear,160,2013-04-28 09:53:00
5:53 AM,46.9,43.0,86,29.86,8.0,SSE,10.4,-,N/A,,Clear,160,2013-04-28 10:53:00
6:53 AM,48.0,44.1,86,29.86,7.0,South,10.4,-,N/A,,Clear,180,2013-04-28 11:53:00
8:53 AM,57.0,48.0,72,29.84,10.0,South,13.8,-,N/A,,Clear,190,2013-04-28 13:53:00
9:53 AM,64.9,48.9,56,29.81,10.0,South,16.1,-,N/A,,Clear,190,2013-04-28 14:53:00
10:53 AM,70.0,46.9,44,29.79,10.0,SSW,20.7,-,N/A,,Clear,200,2013-04-28 15:53:00
11:53 AM,73.0,45.0,37,29.77,10.0,SSW,20.7,27.6,N/A,,Clear,210,2013-04-28 16:53:00
12:53 PM,78.1,45.0,31,29.75,10.0,SSW,18.4,29.9,N/A,,Clear,200,2013-04-28 17:53:00
1:53 PM,80.1,44.1,28,29.73,10.0,SSW,18.4,28.8,N/A,,Clear,210,2013-04-28 18:53:00
2:53 PM,81.0,43.0,26,29.72,10.0,SSW,18.4,25.3,N/A,,Clear,210,2013-04-28 19:53:00
3:53 PM,82.0,41.0,23,29.69,10.0,SSW,16.1,-,N/A,,Clear,200,2013-04-28 20:53:00
4:53 PM,82.9,43.0,24,29.67,10.0,SSW,17.3,24.2,N/A,,Clear,210,2013-04-28 21:53:00
5:53 PM,82.9,43.0,24,29.66,10.0,SW,19.6,24.2,N/A,,Clear,220,2013-04-28 22:53:00
6:53 PM,79.0,42.1,27,29.66,10.0,SSW,12.7,-,N/A,,Clear,210,2013-04-28 23:53:00
7:38 PM,71.6,44.6,38,29.70,10.0,NNE,18.4,-,N/A,,Clear,20,2013-04-29 00:38:00
7:53 PM,69.1,46.9,45,29.71,10.0,North,12.7,-,N/A,,Partly Cloudy,10,2013-04-29 00:53:00
8:53 PM,64.0,48.9,58,29.73,10.0,North,5.8,-,N/A,,Partly Cloudy,10,2013-04-29 01:53:00
9:53 PM,61.0,48.0,62,29.77,10.0,NE,5.8,-,N/A,,Clear,40,2013-04-29 02:53:00
10:53 PM,57.9,46.9,67,29.78,10.0,East,4.6,-,N/A,,Scattered Clouds,80,2013-04-29 03:53:00
11:53 PM,59.0,46.9,64,29.78,10.0,North,13.8,17.3,N/A,,Overcast,350,2013-04-29 04:53:00